Location: Starlight Observatory
(38.4029°N, 85.8936°W)
Time: 08:29:28
(UTC-04:00)

Amateur Radio Satellites - All Passes

Search period start: 17 April 2014 07:59
Search period end: 18 April 2014 07:59
Location: Starlight Observatory, 38.4029°N, 85.8936°W

Satellite Date Start Highest point End Downlink Frequencies (MHz)
Time Altitude Azimuth
MaSat-1 17 Apr 08:01:47 08:04:02 19° 62° (ENE) 08:06:33 437.345 MHz
JAS-2 17 Apr 08:34:12 08:39:26 51° 101° (E) 08:45:08 435.800 - 435.900 CW/SSB, 435.910 FM
STRAND 1 17 Apr 08:39:00 08:43:04 24° 265° (W) 08:47:09 ?
SO-67 17 Apr 09:08:59 09:12:29 75° 283° (WNW) 09:15:58 435.3500 MHz FM
Hamsat 17 Apr 09:12:10 09:14:53 16° 293° (WNW) 09:17:36 145.90 MHz
HO-68 17 Apr 09:27:32 09:31:11 14° 90° (E) 09:34:48 435.675 MHz FM
RS-15 17 Apr 09:29:52 09:40:55 57° 308° (NW) 09:51:42 29.354 - 29.394 USB, Beacon 29.352 USB
MaSat-1 17 Apr 09:40:16 09:42:23 17° 250° (WSW) 09:44:44 437.345 MHz
PCSat 17 Apr 09:45:22 09:47:41 13° 42° (NE) 09:50:00 145.825 MHz
Oscar 10/S400 17 Apr 09:48:13 11:13:51 12° 111° (ESE) 12:18:24 145.825 - 145.975 CW/USB, Beacon 145.810 USB
JAS-2 17 Apr 10:20:31 10:24:14 20° 295° (WNW) 10:28:10 435.800 - 435.900 CW/SSB, 435.910 FM
Oscar 11 17 Apr 10:39:03 10:42:11 19° 94° (E) 10:45:18 145.825 FM, Beacon 2401.500 USB
Sapphire 17 Apr 10:41:50 10:46:37 31° 53° (NE) 10:51:22 437.095 MHz 1200 baud AX-25 AFSK
PANSAT 17 Apr 11:05:12 11:07:26 15° 169° (S) 11:09:39 not established
HO-68 17 Apr 11:12:28 11:19:41 89° 286° (WNW) 11:26:53 435.675 MHz FM
KITSAT 1 17 Apr 11:24:31 11:29:34 17° 34° (NE) 11:34:35 435.175 FM
PCSat 17 Apr 11:26:35 11:32:02 76° 62° (ENE) 11:37:26 145.825 MHz
RS-15 17 Apr 11:48:50 11:56:26 20° 338° (NNW) 12:03:59 29.354 - 29.394 USB, Beacon 29.352 USB
FUNcube-1 17 Apr 11:57:03 12:01:07 44° 99° (E) 12:05:15 145.950 - 145.970 MHz USB
Saudisat 1A 17 Apr 12:07:09 12:11:16 38° 115° (ESE) 12:15:24 436.775 MHz
Oscar 11 17 Apr 12:14:30 12:18:26 34° 289° (WNW) 12:22:22 145.825 FM, Beacon 2401.500 USB
Sapphire 17 Apr 12:25:08 12:30:02 36° 250° (WSW) 12:34:55 437.095 MHz 1200 baud AX-25 AFSK
PANSAT 17 Apr 12:44:18 12:47:02 19° 182° (S) 12:49:46 not established
HO-68 17 Apr 13:02:09 13:06:24 17° 304° (NW) 13:10:39 435.675 MHz FM
PCSat 17 Apr 13:12:25 13:14:43 13° 257° (WSW) 13:17:02 145.825 MHz
KITSAT 1 17 Apr 13:18:37 13:26:42 65° 57° (ENE) 13:34:40 435.175 FM
ITAMSAT 1 17 Apr 13:30:12 13:31:26 11° 59° (ENE) 13:32:40 435.822 SSB
FUNcube-1 17 Apr 13:34:47 13:37:11 15° 294° (WNW) 13:39:37 145.950 - 145.970 MHz USB
Oscar 19 17 Apr 13:37:04 13:41:08 24° 66° (ENE) 13:45:14 437.125 CW, 437.150 USB
Oscar 16 17 Apr 13:44:29 13:48:55 31° 68° (ENE) 13:53:23 437.025 USB, Beacon 2401.1428
Saudisat 1A 17 Apr 13:47:23 13:50:58 23° 312° (NW) 13:54:35 436.775 MHz
AO-Echo 17 Apr 13:58:28 14:01:43 17° 64° (ENE) 14:04:55 ?
RS-15 17 Apr 14:08:04 14:14:53 18° 15° (NNE) 14:21:42 29.354 - 29.394 USB, Beacon 29.352 USB
Uribyol 2 17 Apr 14:15:24 14:19:56 32° 68° (ENE) 14:24:27 436.500 FM
PANSAT 17 Apr 14:24:54 14:26:36 13° 194° (SSW) 14:28:18 not established
Gurwin Techsat 1B 17 Apr 14:35:52 14:38:44 15° 62° (ENE) 14:41:36 435.225 FM
JAS-1B 17 Apr 14:46:38 14:48:37 11° 57° (ENE) 14:50:31 435.800 - 435.900 CW/SSB
AO-27 17 Apr 14:53:38 14:58:48 72° 74° (ENE) 15:03:59 436.795 MHz FM
ITAMSAT 1 17 Apr 15:04:56 15:10:08 89° 76° (ENE) 15:15:20 435.822 SSB
AO-7 17 Apr 15:10:11 15:13:54 14° 48° (NE) 15:17:37 29.400 - 29.500 MHz
KITSAT 1 17 Apr 15:15:05 15:21:26 26° 255° (WSW) 15:27:45 435.175 FM
Oscar 19 17 Apr 15:15:31 15:20:15 38° 262° (W) 15:25:02 437.125 CW, 437.150 USB
TMSAT-1 17 Apr 15:23:36 15:28:05 29° 68° (ENE) 15:32:36 436.925 FM
Oscar 16 17 Apr 15:23:46 15:28:12 29° 264° (W) 15:32:41 437.025 USB, Beacon 2401.1428
AO-Echo 17 Apr 15:34:47 15:40:00 60° 259° (W) 15:45:07 ?
ISS 17 Apr 15:48:18 15:49:59 13° 128° (SE) 15:51:41 145.800 FM
Uosat F 17 Apr 15:53:02 15:56:39 20° 65° (ENE) 16:00:17 435.120 FM
Uribyol 2 17 Apr 15:54:56 15:59:21 29° 264° (W) 16:03:48 436.500 FM
SO-50 17 Apr 15:57:17 16:00:04 16° 109° (ESE) 16:02:51 436.795 FM
Gurwin Techsat 1B 17 Apr 16:12:48 16:18:05 69° 258° (WSW) 16:23:24 435.225 FM
RS-15 17 Apr 16:20:46 16:31:09 45° 47° (NE) 16:41:42 29.354 - 29.394 USB, Beacon 29.352 USB
JAS-1B 17 Apr 16:29:56 16:38:16 66° 73° (ENE) 16:45:13 435.800 - 435.900 CW/SSB
OPAL 17 Apr 16:36:20 16:41:35 86° 106° (ESE) 16:46:48 ?
AO-27 17 Apr 16:36:46 16:38:48 12° 270° (W) 16:40:51 436.795 MHz FM
AO-7 17 Apr 16:56:58 17:05:07 66° 68° (ENE) 17:13:17 29.400 - 29.500 MHz
TMSAT-1 17 Apr 17:03:10 17:07:53 33° 263° (W) 17:12:38 436.925 FM
ISS 17 Apr 17:23:04 17:26:22 58° 323° (NW) 17:29:42 145.800 FM
Uosat F 17 Apr 17:30:18 17:35:06 45° 261° (W) 17:39:55 435.120 FM
SO-50 17 Apr 17:35:53 17:40:13 48° 305° (NW) 17:44:35 436.795 FM
OPAL 17 Apr 18:17:42 18:19:43 12° 302° (WNW) 18:21:45 ?
JAS-1B 17 Apr 18:22:43 18:29:01 23° 265° (W) 18:34:39 435.800 - 435.900 CW/SSB
Hamsat 17 Apr 18:27:45 18:31:10 25° 70° (ENE) 18:34:37 145.90 MHz
UOSAT-12 17 Apr 18:31:00 18:35:03 33° 113° (ESE) 18:39:11 437.025 FM, 437.400 FM
RS-15 17 Apr 18:33:12 18:43:39 53° 249° (WSW) 18:54:27 29.354 - 29.394 USB, Beacon 29.352 USB
JAS-2 17 Apr 18:47:09 18:50:58 18° 65° (ENE) 18:54:35 435.800 - 435.900 CW/SSB, 435.910 FM
AO-7 17 Apr 18:51:53 18:58:23 25° 265° (W) 19:04:56 29.400 - 29.500 MHz
ISS 17 Apr 19:01:57 19:03:42 13° 342° (NNW) 19:05:28 145.800 FM
STRAND 1 17 Apr 19:12:49 19:15:22 14° 91° (E) 19:17:54 ?
SO-67 17 Apr 19:41:38 19:44:36 27° 72° (ENE) 19:47:36 435.3500 MHz FM
HO-68 17 Apr 19:58:42 19:59:44 10° 50° (NE) 20:00:45 435.675 MHz FM
Hamsat 17 Apr 20:03:38 20:07:04 24° 265° (W) 20:10:32 145.90 MHz
UOSAT-12 17 Apr 20:11:18 20:15:12 27° 311° (NW) 20:19:11 437.025 FM, 437.400 FM
JAS-2 17 Apr 20:29:45 20:35:44 58° 259° (WSW) 20:41:07 435.800 - 435.900 CW/SSB, 435.910 FM
Saudisat 1A 17 Apr 20:35:42 20:39:10 22° 48° (NE) 20:42:35 436.775 MHz
STRAND 1 17 Apr 20:49:55 20:54:57 63° 287° (WNW) 20:59:58 ?
SO-67 17 Apr 21:15:45 21:17:48 15° 267° (W) 21:19:51 435.3500 MHz FM
Oscar 11 17 Apr 21:34:05 21:36:10 13° 65° (ENE) 21:38:15 145.825 FM, Beacon 2401.500 USB
HO-68 17 Apr 21:39:00 21:45:57 60° 69° (ENE) 21:52:57 435.675 MHz FM
MaSat-1 17 Apr 22:05:00 22:06:38 14° 109° (ESE) 22:08:09 437.345 MHz
Saudisat 1A 17 Apr 22:14:48 22:18:54 39° 245° (WSW) 22:22:57 436.775 MHz
ISS 17 Apr 22:17:16 22:19:35 17° 23° (NNE) 22:21:53 145.800 FM
FUNcube-1 17 Apr 22:52:42 22:56:23 30° 71° (ENE) 23:00:01 145.950 - 145.970 MHz USB
Oscar 11 17 Apr 23:07:42 23:11:54 52° 260° (W) 23:16:07 145.825 FM, Beacon 2401.500 USB
HO-68 17 Apr 23:28:30 23:34:01 24° 266° (W) 23:39:36 435.675 MHz FM
MaSat-1 17 Apr 23:42:51 23:44:56 18° 299° (WNW) 23:46:52 437.345 MHz
ISS 17 Apr 23:53:20 23:56:42 82° 219° (SW) 00:00:03 145.800 FM
PCSat 18 Apr 00:27:53 00:29:25 11° 102° (ESE) 00:30:56 145.825 MHz
FUNcube-1 18 Apr 00:29:40 00:32:49 20° 265° (W) 00:35:57 145.950 - 145.970 MHz USB
SO-50 18 Apr 00:29:48 00:32:10 14° 42° (NE) 00:34:32 436.795 FM
Sapphire 18 Apr 01:22:11 01:27:05 36° 110° (ESE) 01:32:00 437.095 MHz 1200 baud AX-25 AFSK
Oscar 16 18 Apr 01:59:40 02:01:27 12° 90° (E) 02:03:14 437.025 USB, Beacon 2401.1428
PCSat 18 Apr 02:06:37 02:12:01 84° 298° (WNW) 02:17:29 145.825 MHz
SO-50 18 Apr 02:08:40 02:13:20 85° 240° (WSW) 02:18:04 436.795 FM
OPAL 18 Apr 02:13:49 02:16:42 15° 60° (ENE) 02:19:35 ?
Uribyol 2 18 Apr 02:31:30 02:33:29 12° 90° (E) 02:35:26 436.500 FM
UOSAT-12 18 Apr 03:02:03 03:05:45 22° 47° (NE) 03:09:26 437.025 FM, 437.400 FM
Sapphire 18 Apr 03:05:46 03:10:31 30° 307° (NW) 03:15:17 437.095 MHz 1200 baud AX-25 AFSK
AO-27 18 Apr 03:08:44 03:13:12 29° 96° (E) 03:17:38 436.795 MHz FM
Oscar 10/S400 18 Apr 03:09:34 03:27:05 31° 134° (SE) 04:12:15 145.825 - 145.975 CW/USB, Beacon 145.810 USB
ITAMSAT 1 18 Apr 03:19:41 03:24:26 36° 98° (E) 03:29:09 435.822 SSB
Oscar 19 18 Apr 03:28:07 03:33:21 86° 103° (ESE) 03:38:33 437.125 CW, 437.150 USB
Oscar 16 18 Apr 03:36:07 03:41:19 75° 285° (WNW) 03:46:29 437.025 USB, Beacon 2401.1428
TMSAT-1 18 Apr 03:42:37 03:44:43 12° 90° (E) 03:46:48 436.925 FM
AO-Echo 18 Apr 03:43:58 03:48:37 49° 99° (E) 03:53:09 ?
KITSAT 1 18 Apr 03:44:49 03:52:39 55° 112° (ESE) 04:00:31 435.175 FM
OPAL 18 Apr 03:50:04 03:55:01 64° 256° (WSW) 04:00:04 ?
PCSat 18 Apr 03:53:33 03:56:16 14° 317° (NW) 03:59:00 145.825 MHz
Uribyol 2 18 Apr 04:08:16 04:13:26 72° 286° (WNW) 04:18:35 436.500 FM
JAS-1B 18 Apr 04:19:18 04:21:47 13° 91° (E) 04:24:19 435.800 - 435.900 CW/SSB
Gurwin Techsat 1B 18 Apr 04:30:37 04:35:50 54° 100° (E) 04:41:00 435.225 FM
UOSAT-12 18 Apr 04:41:37 04:46:07 45° 244° (WSW) 04:50:33 437.025 FM, 437.400 FM
AO-27 18 Apr 04:48:08 04:52:40 32° 292° (WNW) 04:57:11 436.795 MHz FM
ITAMSAT 1 18 Apr 04:59:32 05:03:44 26° 293° (WNW) 05:07:56 435.822 SSB
AO-7 18 Apr 05:01:24 05:07:35 23° 94° (E) 05:13:44 29.400 - 29.500 MHz
Oscar 19 18 Apr 05:10:13 05:11:55 12° 300° (WNW) 05:13:38 437.125 CW, 437.150 USB
TMSAT-1 18 Apr 05:19:51 05:25:09 73° 285° (WNW) 05:30:24 436.925 FM
AO-Echo 18 Apr 05:23:59 05:26:58 17° 296° (WNW) 05:29:54 ?
Uosat F 18 Apr 05:39:18 05:44:16 63° 102° (ESE) 05:49:12 435.120 FM
KITSAT 1 18 Apr 05:41:04 05:48:21 35° 312° (NW) 05:55:40 435.175 FM
JAS-1B 18 Apr 06:07:24 06:13:02 68° 287° (WNW) 06:18:52 435.800 - 435.900 CW/SSB
Gurwin Techsat 1B 18 Apr 06:11:46 06:15:20 19° 296° (WNW) 06:18:54 435.225 FM
STRAND 1 18 Apr 06:27:12 06:30:41 19° 64° (ENE) 06:34:10 ?
RS-15 18 Apr 06:44:07 06:53:20 30° 104° (ESE) 07:02:15 29.354 - 29.394 USB, Beacon 29.352 USB
AO-7 18 Apr 06:52:43 07:00:59 73° 291° (WNW) 07:09:15 29.400 - 29.500 MHz
Uosat F 18 Apr 07:19:47 07:22:30 15° 298° (WNW) 07:25:14 435.120 FM
JAS-2 18 Apr 07:40:44 07:44:10 17° 94° (E) 07:47:45 435.800 - 435.900 CW/SSB, 435.910 FM
KITSAT 1 18 Apr 07:45:10 07:46:42 11° 338° (NNW) 07:48:14 435.175 FM
Hamsat 18 Apr 07:49:59 07:54:19 64° 101° (E) 07:58:38 145.90 MHz
